CAPE
0 0 0 0 0 0 0 0 0 0 0 0 0 0 0 0 0 0 0 0 0 0
0 0 0 0 0 0 0 0 0 0 0 0 0 0 0 0 0 0 0 0 0 0
0 0 0 0 0 0 0 0 0 0 0 0 0 0 0 0 0 0 0 0 1 1
0 0 0 0 0 0 0 0 0 0 0 0 0 0 0 0 0 0 0 0 0 1
0 0 0 0 0 0 0 0 0 0 0 0 0 0 0 0 0 0 0 0 0 0
0 0 0 0 0 0 0 0 0 0 0 0 0 0 0 0 0 0 0 0 1 1
0 0 0 0 0 0 0 0 0 0 0 0 0 0 0 0 0 0 0 1 4 5
0 0 0 0 0 0 0 0 0 0 0 0 0 0 0 0 0 0 0 1 2 8
0 0 0 0 0 0 0 0 0 1 0 0 0 2 0 0 1 1 2 3 5 7
2 0 0 0 0 0 1 1 0 0 0 0 6 2 0 0 4 6 6 5 6 11
0 0 0 0 0 0 1 1 1 0 1 7 12 2 0 0 1 3 3 6 7 7
0 0 0 0 0 1 1 1 0 1 0 1 10 3 0 0 1 2 2 1 7 3
0 0 0 0 0 0 1 1 2 1 0 0 6 2 1 0 3 1 3 1 1 3
0 0 0 0 0 0 1 1 0 0 0 0 9 7 2 0 2 3 3 6 8 8
CIN
0 0 0 0 0 0 0 0 0 0 0 0 0 0 0 0 0 0 0 0 0 0
0 0 0 0 0 0 0 0 0 0 0 0 0 0 0 0 0 0 0 0 0 0
0 0 0 0 0 0 0 0 0 0 0 0 0 0 0 0 0 0 0 0 0 0
0 0 0 0 0 0 0 0 0 0 0 0 0 0 0 0 0 0 0 0 0 0
0 0 0 0 0 0 0 0 0 0 0 0 0 0 0 0 0 0 0 0 0 0
0 0 0 0 0 0 0 0 0 0 0 0 0 0 0 0 0 0 0 0 0 0
0 0 0 0 0 0 0 0 0 0 0 0 0 0 0 0 0 0 0 0 0 0
0 0 0 0 0 0 0 0 0 0 0 0 0 0 0 0 0 0 0 0 0 0
0 0 0 0 0 0 0 0 0 0 0 0 0 0 0 0 0 0 0 0 0 0
0 0 0 0 0 0 0 0 0 0 0 0 0 0 0 0 0 0 0 0 0 0
0 0 0 0 0 0 0 0 0 0 0 0 0 0 0 0 0 0 0 0 0 0
0 0 0 0 0 0 0 0 0 0 0 0 0 0 0 0 0 0 0 0 0 0
0 0 0 0 0 0 0 0 0 0 0 0 0 0 0 0 0 0 0 0 0 0
0 0 0 0 0 0 0 0 0 0 0 0 0 0 0 0 0 0 0 0 0 0
Wind_Speed
10 5 6 6 5 5 4 4 5 5 7 8 8 8 7 7 6 7 5 9 7 4
8 8 8 7 5 5 5 5 5 5 7 7 8 8 7 6 7 6 7 7 7 6
8 8 8 6 6 5 6 6 5 6 7 7 7 7 7 6 7 7 7 6 8 8
8 8 7 6 5 6 6 6 5 6 7 7 7 7 6 7 7 7 7 8 8 9
9 8 7 6 6 5 6 6 6 6 6 7 6 7 7 7 7 8 8 9 9 10
10 8 7 7 5 5 5 6 6 7 7 6 6 6 7 7 7 7 8 8 9 10
10 9 7 7 7 6 4 6 6 6 7 7 7 6 7 7 8 8 8 7 7 10
10 10 8 8 7 6 5 6 6 7 7 7 7 6 6 7 8 8 8 8 7 9
11 11 9 8 8 7 6 7 7 7 7 7 7 11 10 7 7 8 8 8 9 10
9 10 10 10 8 7 6 7 7 6 6 6 7 10 10 9 6 6 7 8 9 10
10 9 10 10 8 8 7 7 6 5 4 5 6 9 8 9 6 7 8 8 9 10
11 10 10 9 9 7 7 6 5 4 5 5 5 9 6 5 5 7 8 8 10 10
11 10 9 10 9 6 6 7 5 6 5 6 5 10 8 6 4 7 6 8 9 14
13 12 11 10 8 8 7 6 5 6 5 6 5 8 10 9 6 5 5 5 6 7
Wind_Direction
125 119 112 107 115 96 80 45 43 42 50 45 40 36 37 57 32 32 30 36 26 27
123 122 113 113 106 101 106 86 53 48 56 44 40 32 25 41 46 35 22 23 20 20
128 116 117 114 106 102 88 83 78 62 62 54 47 40 29 32 29 35 34 9 18 21
127 120 112 114 114 99 98 88 79 68 66 61 56 48 46 45 27 28 28 12 16 17
128 133 137 132 106 104 105 93 77 71 79 68 58 49 53 54 41 29 26 20 14 12
143 144 135 122 125 107 108 104 95 85 78 75 68 62 56 51 48 42 31 20 17 14
150 144 139 144 123 115 123 108 103 94 78 75 69 65 61 57 56 51 42 28 23 27
149 143 144 135 123 120 123 107 101 96 90 80 68 58 59 61 57 50 47 40 26 34
152 144 137 131 132 124 119 101 92 89 85 80 76 71 68 61 67 59 48 39 34 37
152 142 135 138 129 123 119 107 96 82 88 84 80 81 81 81 75 75 56 44 35 37
149 140 134 120 130 129 117 101 94 89 86 89 82 86 97 98 92 78 59 45 41 39
142 143 135 137 147 133 125 115 103 89 85 91 94 87 96 104 87 76 62 47 32 51
147 139 140 152 144 129 127 123 122 102 76 85 100 90 85 87 88 76 64 51 36 36
155 147 154 149 138 134 129 125 123 110 87 71 89 90 82 78 82 78 76 64 48 37